This demonstration page uses our WeatherBlox Daily Observations layout. Learn more.

Left ArrowRight Arrow

Hourly Observations for February 29, 2016

Temp ( °F °C ) Dew Point ( °F °C ) Humidity (%) Winds ( mph kmh ) Pressure ( in mb ) Visibility ( mi km ) Precip ( " mm )
12:51 am 00:51 Clear 52 11.1 20 -6.7 28 28 SSE 3 6 29.95 1014 10 16.0934 N/A
1:51 am 01:51 Clear 50 10 20 -6.7 30 30 SE 7 11 29.95 1014 10 16.0934 N/A
2:51 am 02:51 Clear 48 8.9 19 -7.2 32 32 E 5 7 29.95 1014 10 16.0934 N/A
3:51 am 03:51 Clear 46 7.8 20 -6.7 35 35 SSE 7 11 29.94 1014 10 16.0934 N/A
4:51 am 04:51 Clear 44 6.7 20 -6.7 38 38 SE 5 7 29.96 1015 10 16.0934 N/A
5:51 am 05:51 Clear 43 6.1 20 -6.7 40 40 ESE 6 9 29.98 1015 10 16.0934 N/A
6:51 am 06:51 Sunny 43 6.1 20 -6.7 40 40 N N/A 30 1016 10 16.0934 N/A
7:51 am 07:51 Sunny 46 7.8 21 -6.1 37 37 SSE 3 6 30.01 1016 10 16.0934 N/A
8:51 am 08:51 Sunny 54 12.2 22 -5.6 29 29 SSE 3 6 30.03 1017 10 16.0934 N/A
9:51 am 09:51 Sunny 62 16.7 23 -5 22 22 WNW 3 6 30.03 1017 10 16.0934 N/A
10:51 am 10:51 Sunny 68 20 22 -5.6 17 17 VRB 5 7 30.01 1016 10 16.0934 N/A
11:51 am 11:51 Sunny 72 22.2 23 -5 16 16 WNW 8 13 29.98 1015 10 16.0934 N/A
12:51 pm 12:51 Sunny 78 25.6 21 -6.1 12 12 WNW 13 20 29.94 1014 10 16.0934 N/A
1:51 pm 13:51 Sunny 79 26.1 21 -6.1 11 11 NW 17 28 29.91 1013 10 16.0934 N/A
2:51 pm 14:51 Sunny 80 26.7 21 -6.1 11 11 WNW 16 26 29.89 1012 10 16.0934 N/A
3:51 pm 15:51 Sunny 80 26.7 22 -5.6 11 11 WNW 17 28 29.89 1012 10 16.0934 N/A
4:51 pm 16:51 Sunny 79 26.1 21 -6.1 11 11 NW 15 24 29.89 1012 10 16.0934 N/A
5:51 pm 17:51 Sunny 77 25 17 -8.3 10 10 NW 13 20 29.91 1013 10 16.0934 N/A
6:51 pm 18:51 Clear 68 20 20 -6.7 16 16 WNW 6 9 29.94 1014 10 16.0934 N/A
7:51 pm 19:51 Clear 67 19.4 21 -6.1 17 17 NW 13 20 29.95 1014 10 16.0934 N/A
8:51 pm 20:51 Clear 67 19.4 22 -5.6 18 18 NW 17 28 29.96 1014 10 16.0934 N/A
9:51 pm 21:51 Clear 66 18.9 23 -5 19 19 NW 10 17 29.98 1015 10 16.0934 N/A
10:51 pm 22:51 Clear 63 17.2 23 -5 22 22 W 6 9 29.99 1016 10 16.0934 N/A
11:51 pm 23:51 Clear 60 15.6 23 -5 24 24 NNW 7 11 29.99 1016 10 16.0934 N/A

Powered by AerisWeather